�������l�o���
Date,Time,MP-1(��Sv/h),MP-2(��Sv/h),MP-3(��Sv/h),MP-4(��Sv/h),MP-5(��Sv/h),MP-6(��Sv/h),MP-7(��Sv/h),MP-8(��Sv/h),����,����(m/s),���J
2023/03/30,00:00,0.552,0.810,0.490,1.009,0.708,0.320,0.573,0.545,�k�k��,3.7,��
2023/03/30,00:10,0.554,0.810,0.488,1.009,0.707,0.321,0.573,0.544,�k�k��,3.6,��
2023/03/30,00:20,0.553,0.810,0.488,1.010,0.708,0.319,0.574,0.544,�k�k��,3.5,��
2023/03/30,00:30,0.553,0.809,0.488,1.007,0.709,0.319,0.574,0.545,�k�k��,3.4,��
2023/03/30,00:40,0.554,0.810,0.489,1.008,0.706,0.319,0.575,0.545,�k�k��,4.9,��
2023/03/30,00:50,0.554,0.808,0.490,1.008,0.709,0.319,0.574,0.545,�k�k��,5.0,��
2023/03/30,01:00,0.554,0.808,0.490,1.009,0.706,0.319,0.574,0.546,�k�k��,5.3,��
2023/03/30,01:10,0.556,0.808,0.489,1.011,0.708,0.320,0.573,0.543,�k�k��,5.6,��
2023/03/30,01:20,0.554,0.809,0.489,1.009,0.708,0.320,0.574,0.544,�k�k��,5.5,��
2023/03/30,01:30,0.553,0.812,0.490,1.008,0.707,0.320,0.573,0.545,�k�k��,6.4,��
2023/03/30,01:40,0.553,0.810,0.489,1.009,0.708,0.320,0.575,0.544,�k�k��,5.6,��
2023/03/30,01:50,0.554,0.810,0.489,1.008,0.708,0.320,0.574,0.545,�k�k��,5.7,��
2023/03/30,02:00,0.552,0.810,0.490,1.008,0.707,0.321,0.573,0.546,�k�k��,5.8,��
2023/03/30,02:10,0.553,0.810,0.488,1.007,0.707,0.320,0.572,0.546,�k��,6.3,��
2023/03/30,02:20,0.552,0.809,0.490,1.009,0.709,0.320,0.574,0.544,�k��,6.3,��
2023/03/30,02:30,0.554,0.809,0.489,1.008,0.707,0.319,0.574,0.545,�k�k��,6.6,��
2023/03/30,02:40,0.553,0.810,0.489,1.009,0.707,0.320,0.572,0.545,�k�k��,6.7,��
2023/03/30,02:50,0.553,0.809,0.487,1.010,0.708,0.321,0.576,0.546,�k�k��,7.3,��
2023/03/30,03:00,0.553,0.810,0.489,1.009,0.708,0.319,0.575,0.545,�k��,6.3,��
2023/03/30,03:10,0.552,0.811,0.490,1.009,0.705,0.319,0.575,0.545,�k�k��,6.6,��
2023/03/30,03:20,0.555,0.809,0.489,1.010,0.708,0.320,0.572,0.544,�k�k��,5.9,��
2023/03/30,03:30,0.554,0.809,0.487,1.008,0.708,0.320,0.573,0.545,�k�k��,5.9,��
2023/03/30,03:40,0.552,0.811,0.491,1.009,0.708,0.320,0.573,0.546,�k�k��,5.3,��
2023/03/30,03:50,0.555,0.811,0.488,1.009,0.707,0.321,0.572,0.544,�k��,5.2,��
2023/03/30,04:00,0.552,0.810,0.489,1.009,0.708,0.320,0.575,0.545,�k�k��,4.8,��
2023/03/30,04:10,0.554,0.810,0.488,1.006,0.706,0.320,0.574,0.545,�k��,5.6,��
2023/03/30,04:20,0.553,0.810,0.489,1.010,0.708,0.319,0.574,0.546,�k��,5.2,��
2023/03/30,04:30,0.552,0.809,0.490,1.010,0.706,0.320,0.574,0.545,�k�k��,5.3,��
2023/03/30,04:40,0.553,0.810,0.490,1.010,0.708,0.320,0.574,0.546,�k�k��,5.8,��
2023/03/30,04:50,0.553,0.811,0.491,1.010,0.707,0.319,0.573,0.544,�k�k��,6.0,��
2023/03/30,05:00,0.555,0.812,0.489,1.009,0.708,0.320,0.573,0.546,�k�k��,5.9,��
2023/03/30,05:10,0.555,0.810,0.490,1.010,0.707,0.320,0.575,0.545,�k�k��,5.9,��
2023/03/30,05:20,0.556,0.811,0.490,1.010,0.708,0.320,0.573,0.546,�k�k��,6.5,��
2023/03/30,05:30,0.554,0.810,0.490,1.009,0.707,0.320,0.575,0.544,�k�k��,6.9,��
2023/03/30,05:40,0.552,0.809,0.490,1.009,0.708,0.319,0.574,0.545,�k�k��,6.5,��
2023/03/30,05:50,0.553,0.811,0.490,1.009,0.708,0.319,0.573,0.545,�k�k��,6.1,��
2023/03/30,06:00,0.555,0.809,0.488,1.011,0.708,0.320,0.574,0.545,�k�k��,5.9,��
2023/03/30,06:10,0.553,0.810,0.489,1.009,0.709,0.320,0.572,0.545,�k�k��,6.1,��
2023/03/30,06:20,0.553,0.811,0.490,1.010,0.708,0.319,0.574,0.546,�k�k��,6.2,��
2023/03/30,06:30,0.553,0.810,0.487,1.009,0.709,0.320,0.574,0.545,�k�k��,5.9,��
2023/03/30,06:40,0.554,0.808,0.488,1.008,0.707,0.319,0.573,0.544,�k�k��,5.2,��
2023/03/30,06:50,0.553,0.812,0.491,1.010,0.708,0.320,0.572,0.545,�k�k��,4.9,��
2023/03/30,07:00,0.553,0.812,0.489,1.012,0.708,0.319,0.573,0.544,�k�k��,5.0,��
2023/03/30,07:10,0.554,0.810,0.489,1.010,0.707,0.320,0.573,0.546,�k�k��,4.5,��
2023/03/30,07:20,0.553,0.808,0.489,1.010,0.710,0.320,0.574,0.545,�k�k��,3.2,��
2023/03/30,07:30,0.553,0.810,0.489,1.010,0.708,0.320,0.572,0.544,�k�k��,4.1,��
2023/03/30,07:40,0.554,0.811,0.488,1.009,0.709,0.320,0.570,0.543,�k�k��,4.9,��
2023/03/30,07:50,0.554,0.811,0.490,1.008,0.709,0.320,0.573,0.545,�k�k��,4.9,��
2023/03/30,08:00,0.553,0.811,0.489,1.008,0.708,0.319,0.572,0.544,�k�k��,3.6,��
2023/03/30,08:10,0.554,0.809,0.490,1.010,0.707,0.319,0.572,0.544,�k,3.5,��
2023/03/30,08:20,0.556,0.809,0.490,1.008,0.707,0.320,0.572,0.544,�k�k��,3.8,��
2023/03/30,08:30,0.553,0.809,0.488,1.011,0.706,0.320,0.572,0.544,�k�k��,3.3,��
2023/03/30,08:40,0.555,0.809,0.491,1.010,0.708,0.320,0.571,0.545,�k�k��,3.2,��
2023/03/30,08:50,0.556,0.809,0.489,1.011,0.709,0.319,0.573,0.542,�k��,3.6,��
2023/03/30,09:00,0.555,0.806,0.491,1.012,0.709,0.319,0.572,0.544,�k,2.8,��
2023/03/30,09:10,0.556,0.808,0.489,1.010,0.709,0.318,0.573,0.543,�k�k��,2.6,��
2023/03/30,09:20,0.555,0.807,0.488,1.010,0.708,0.319,0.572,0.544,�k,3.0,��
2023/03/30,09:30,0.554,0.807,0.491,1.010,0.708,0.318,0.573,0.544,�k�k��,3.0,��
2023/03/30,09:40,0.554,0.809,0.490,1.010,0.710,0.318,0.573,0.544,�k�k��,3.3,��
2023/03/30,09:50,0.554,0.809,0.492,1.009,0.707,0.320,0.572,0.543,�k�k��,4.5,��
2023/03/30,10:00,0.553,0.808,0.490,1.011,0.707,0.321,0.571,0.543,�k�k��,4.3,��
2023/03/30,10:10,0.553,0.809,0.489,1.010,0.708,0.318,0.572,0.543,�k�k��,4.4,��
2023/03/30,10:20,0.553,0.810,0.490,1.011,0.708,0.318,0.571,0.543,�k�k��,4.9,��
2023/03/30,10:30,0.553,0.809,0.489,1.011,0.709,0.318,0.573,0.544,�k��,4.3,��
2023/03/30,10:40,0.553,0.808,0.490,1.011,0.709,0.318,0.572,0.544,�k�k��,4.7,��
2023/03/30,10:50,0.556,0.810,0.490,1.010,0.708,0.318,0.572,0.545,�k�k��,5.2,��
2023/03/30,11:00,0.553,0.810,0.489,1.010,0.709,0.318,0.572,0.544,�k�k��,4.1,��
2023/03/30,11:10,0.553,0.810,0.489,1.010,0.711,0.319,0.573,0.543,�k�k��,4.2,��
2023/03/30,11:20,0.554,0.810,0.489,1.012,0.708,0.320,0.574,0.545,�k��,4.2,��
2023/03/30,11:30,0.556,0.810,0.489,1.010,0.707,0.318,0.573,0.544,�k�k��,3.8,��
2023/03/30,11:40,0.554,0.812,0.489,1.012,0.709,0.318,0.573,0.543,�k�k��,3.7,��
2023/03/30,11:50,0.553,0.811,0.488,1.013,0.709,0.319,0.573,0.543,�k�k��,4.3,��
2023/03/30,12:00,0.556,0.812,0.488,1.011,0.709,0.319,0.573,0.543,�k��,4.4,��
2023/03/30,12:10,0.555,0.812,0.490,1.012,0.709,0.318,0.574,0.544,���k��,4.0,��
2023/03/30,12:20,0.556,0.813,0.489,1.012,0.711,0.319,0.573,0.545,�k��,4.1,��
2023/03/30,12:30,0.555,0.812,0.489,1.012,0.711,0.319,0.574,0.545,�k��,3.9,��
2023/03/30,12:40,0.555,0.812,0.490,1.012,0.710,0.318,0.574,0.545,�k�k��,4.0,��
2023/03/30,12:50,0.558,0.814,0.489,1.011,0.710,0.320,0.574,0.544,���k��,3.5,��
2023/03/30,13:00,0.555,0.812,0.490,1.012,0.712,0.320,0.576,0.545,�k��,3.3,��
2023/03/30,13:10,0.556,0.813,0.489,1.012,0.713,0.320,0.574,0.545,�k��,3.0,��
2023/03/30,13:20,0.556,0.814,0.489,1.012,0.709,0.320,0.575,0.545,�k��,2.3,��
2023/03/30,13:30,0.557,0.812,0.490,1.015,0.713,0.320,0.574,0.544,��,2.3,��
2023/03/30,13:40,0.556,0.812,0.491,1.011,0.711,0.321,0.575,0.545,��,2.3,��
2023/03/30,13:50,0.554,0.811,0.490,1.013,0.711,0.321,0.576,0.544,�k��,1.8,��
2023/03/30,14:00,0.557,0.813,0.490,1.014,0.711,0.319,0.574,0.545,�k��,2.3,��
2023/03/30,14:10,0.558,0.812,0.491,1.012,0.712,0.319,0.574,0.545,��,1.7,��
2023/03/30,14:20,0.557,0.812,0.491,1.013,0.710,0.320,0.575,0.545,��,1.8,��
2023/03/30,14:30,0.558,0.812,0.490,1.012,0.712,0.318,0.576,0.545,���k��,2.0,��
2023/03/30,14:40,0.555,0.812,0.489,1.012,0.711,0.319,0.575,0.544,���k��,2.3,��
2023/03/30,14:50,0.558,0.813,0.490,1.012,0.713,0.320,0.576,0.545,���k��,1.9,��
2023/03/30,15:00,0.557,0.813,0.491,1.013,0.712,0.320,0.576,0.545,���k��,1.7,��
2023/03/30,15:10,0.557,0.813,0.490,1.013,0.712,0.320,0.575,0.544,��,2.3,��
2023/03/30,15:20,0.556,0.812,0.492,1.014,0.712,0.322,0.574,0.544,��,2.3,��
2023/03/30,15:30,0.557,0.815,0.491,1.014,0.711,0.321,0.575,0.546,�쓌,2.6,��
2023/03/30,15:40,0.558,0.813,0.490,1.013,0.711,0.321,0.574,0.544,���쓌,2.5,��
2023/03/30,15:50,0.556,0.814,0.492,1.014,0.713,0.321,0.576,0.545,���쓌,2.6,��
2023/03/30,16:00,0.556,0.814,0.490,1.014,0.712,0.321,0.575,0.545,�쓌,2.9,��
2023/03/30,16:10,0.557,0.815,0.489,1.015,0.711,0.322,0.575,0.545,�쓌,2.6,��
2023/03/30,16:20,0.557,0.816,0.492,1.012,0.711,0.322,0.576,0.544,��쓌,3.4,��
2023/03/30,16:30,0.558,0.817,0.490,1.012,0.712,0.322,0.575,0.544,��쓌,4.1,��
2023/03/30,16:40,0.557,0.817,0.491,1.014,0.711,0.321,0.575,0.545,��쓌,5.4,��
2023/03/30,16:50,0.558,0.817,0.491,1.015,0.710,0.321,0.574,0.544,��쓌,4.8,��
2023/03/30,17:00,0.558,0.816,0.493,1.012,0.710,0.321,0.575,0.545,��,6.0,��
2023/03/30,17:10,0.559,0.816,0.492,1.013,0.711,0.321,0.575,0.547,��,7.3,��
2023/03/30,17:20,0.559,0.818,0.493,1.014,0.710,0.323,0.574,0.546,��,8.4,��
2023/03/30,17:30,0.557,0.815,0.491,1.014,0.710,0.322,0.574,0.547,��쓌,9.8,��
2023/03/30,17:40,0.559,0.815,0.494,1.014,0.711,0.321,0.574,0.547,��,8.0,��
2023/03/30,17:50,0.559,0.817,0.492,1.012,0.711,0.321,0.576,0.547,��,8.5,��
2023/03/30,18:00,0.560,0.819,0.493,1.014,0.711,0.323,0.577,0.546,��,7.4,��
2023/03/30,18:10,0.559,0.816,0.493,1.012,0.712,0.322,0.575,0.546,��,6.9,��
2023/03/30,18:20,0.558,0.817,0.492,1.014,0.713,0.321,0.576,0.546,��,6.4,��
2023/03/30,18:30,0.560,0.818,0.491,1.014,0.714,0.322,0.576,0.547,��쐼,6.3,��
2023/03/30,18:40,0.558,0.817,0.493,1.012,0.714,0.321,0.575,0.547,��,7.2,��
2023/03/30,18:50,0.558,0.816,0.492,1.014,0.715,0.322,0.577,0.545,��,7.3,��
2023/03/30,19:00,0.558,0.815,0.492,1.012,0.713,0.321,0.577,0.547,��,8.8,��
2023/03/30,19:10,0.558,0.817,0.493,1.013,0.715,0.321,0.574,0.547,��,10.2,��
2023/03/30,19:20,0.561,0.816,0.492,1.014,0.713,0.323,0.578,0.547,��,9.0,��
2023/03/30,19:30,0.559,0.817,0.492,1.015,0.714,0.322,0.574,0.546,��,9.0,��
2023/03/30,19:40,0.559,0.817,0.492,1.014,0.713,0.321,0.575,0.547,��,9.2,��
2023/03/30,19:50,0.560,0.815,0.492,1.013,0.714,0.321,0.575,0.545,��,8.4,��
2023/03/30,20:00,0.558,0.817,0.492,1.014,0.713,0.322,0.575,0.545,��쐼,7.0,��
2023/03/30,20:10,0.559,0.815,0.493,1.013,0.713,0.323,0.575,0.544,��쐼,6.5,��
2023/03/30,20:20,0.560,0.817,0.491,1.014,0.712,0.322,0.577,0.548,��쐼,6.9,��
2023/03/30,20:30,0.559,0.816,0.491,1.013,0.714,0.322,0.576,0.546,��쐼,7.2,��
2023/03/30,20:40,0.559,0.816,0.493,1.013,0.714,0.323,0.575,0.544,��쐼,6.8,��
2023/03/30,20:50,0.558,0.818,0.492,1.014,0.714,0.322,0.575,0.546,��쐼,6.2,��
2023/03/30,21:00,0.560,0.816,0.492,1.013,0.712,0.321,0.576,0.546,��,5.1,��
2023/03/30,21:10,0.558,0.816,0.490,1.014,0.715,0.322,0.576,0.546,��쐼,3.8,��
2023/03/30,21:20,0.559,0.816,0.491,1.012,0.712,0.322,0.576,0.546,��쐼,2.9,��
2023/03/30,21:30,0.558,0.816,0.492,1.014,0.712,0.321,0.575,0.546,��쐼,2.6,��
2023/03/30,21:40,0.558,0.815,0.493,1.014,0.713,0.321,0.575,0.545,�쐼,3.3,��
2023/03/30,21:50,0.559,0.816,0.493,1.013,0.713,0.322,0.575,0.546,��쐼,5.2,��
2023/03/30,22:00,0.560,0.815,0.492,1.013,0.714,0.322,0.576,0.544,��쐼,6.0,��
2023/03/30,22:10,0.559,0.815,0.492,1.016,0.715,0.320,0.574,0.546,��쐼,6.4,��
2023/03/30,22:20,0.558,0.814,0.492,1.014,0.714,0.322,0.574,0.546,��쐼,5.0,��
2023/03/30,22:30,0.558,0.817,0.491,1.015,0.713,0.321,0.575,0.547,��,3.8,��
2023/03/30,22:40,0.558,0.818,0.491,1.013,0.715,0.320,0.574,0.546,��쐼,3.9,��
2023/03/30,22:50,0.558,0.815,0.493,1.013,0.712,0.320,0.575,0.546,��쐼,4.2,��
2023/03/30,23:00,0.557,0.816,0.493,1.013,0.714,0.321,0.575,0.546,��쐼,4.5,��
2023/03/30,23:10,0.557,0.815,0.491,1.014,0.712,0.322,0.577,0.546,��,4.7,��
2023/03/30,23:20,0.558,0.813,0.492,1.012,0.714,0.322,0.576,0.546,��쐼,4.3,��
2023/03/30,23:30,0.557,0.815,0.491,1.014,0.712,0.322,0.576,0.546,��쐼,3.8,��
2023/03/30,23:40,0.557,0.815,0.492,1.012,0.714,0.322,0.575,0.546,��쐼,3.0,��
2023/03/30,23:50,0.559,0.815,0.491,1.011,0.714,0.321,0.574,0.545,��쐼,2.8,��
